| time (UTC) | temp C | wind direction | speed KPH | gust KPH | rain 1hr cm | rain 24hr cm | rain mn cm | humidity % | barometer mb |
| 20260503024625 | 27 | 259 | 1.6 | 6.4 | 0.00 | 0.00 | 0.00 | 81 | 1007.6 |
| 20260503024002 | 27 | 197 | 1.6 | 4.8 | 0.00 | 0.00 | 0.00 | 81 | 1007.7 |
| 20260503023517 | 27 | 198 | 1.6 | 4.8 | 0.00 | 0.00 | 0.00 | 80 | 1007.6 |
| 20260503023120 | 27 | 196 | 1.6 | 4.8 | 0.00 | 0.00 | 0.00 | 80 | 1007.5 |
| 20260503022623 | 27 | 192 | 1.6 | 6.4 | 0.00 | 0.00 | 0.00 | 80 | 1007.5 |
| 20260503022019 | 27 | 188 | 1.6 | 8.0 | 0.00 | 0.00 | 0.00 | 80 | 1007.4 |
| 20260503021541 | 27 | 184 | 3.2 | 6.4 | 0.00 | 0.00 | 0.00 | 80 | 1007.3 |
| 20260503021053 | 27 | 238 | 3.2 | 11.3 | 0.00 | 0.00 | 0.00 | 80 | 1007.2 |
| 20260503020614 | 27 | 254 | 3.2 | 12.9 | 0.00 | 0.00 | 0.00 | 80 | 1007.2 |
| 20260503020011 | 27 | 169 | 4.8 | 11.3 | 0.00 | 0.00 | 0.00 | 80 | 1007.2 |
| 20260503015527 | 27 | 227 | 4.8 | 12.9 | 0.00 | 0.00 | 0.00 | 80 | 1007.2 |
| 20260503015042 | 27 | 240 | 3.2 | 12.9 | 0.00 | 0.00 | 0.00 | 80 | 1007.1 |
| 20260503014605 | 27 | 211 | 4.8 | 12.9 | 0.00 | 0.00 | 0.00 | 79 | 1007.0 |
| 20260503014009 | 27 | 185 | 8.0 | 12.9 | 0.00 | 0.00 | 0.00 | 79 | 1007.0 |
| 20260503013531 | 27 | 188 | 6.4 | 9.7 | 0.00 | 0.00 | 0.00 | 79 | 1007.0 |
| 20260503013057 | 27 | 196 | 4.8 | 9.7 | 0.00 | 0.00 | 0.00 | 79 | 1007.0 |
| 20260503012617 | 28 | 197 | 3.2 | 14.5 | 0.00 | 0.00 | 0.00 | 79 | 1007.1 |
| 20260503012013 | 28 | 190 | 8.0 | 14.5 | 0.00 | 0.00 | 0.00 | 79 | 1007.1 |
| 20260503011537 | 28 | 226 | 6.4 | 12.9 | 0.00 | 0.00 | 0.00 | 79 | 1007.1 |
| 20260503011115 | 28 | 196 | 3.2 | 11.3 | 0.00 | 0.00 | 0.00 | 79 | 1007.1 |
| 20260503010519 | 28 | 241 | 3.2 | 11.3 | 0.00 | 0.00 | 0.00 | 80 | 1007.0 |
| 20260503010044 | 28 | 218 | 3.2 | 11.3 | 0.00 | 0.00 | 0.00 | 80 | 1007.0 |
| 20260503005619 | 28 | 288 | 3.2 | 14.5 | 0.00 | 0.00 | 0.00 | 80 | 1006.9 |
| 20260503005015 | 28 | 265 | 4.8 | 14.5 | 0.00 | 0.00 | 0.00 | 80 | 1006.9 |
| 20260503004529 | 28 | 213 | 3.2 | 12.9 | 0.00 | 0.00 | 0.00 | 80 | 1006.9 |
| 20260503004102 | 28 | 261 | 1.6 | 14.5 | 0.00 | 0.00 | 0.00 | 79 | 1006.8 |
| 20260503003618 | 28 | 43 | 3.2 | 14.5 | 0.00 | 0.00 | 0.00 | 79 | 1006.6 |
| 20260503003011 | 28 | 240 | 3.2 | 12.9 | 0.00 | 0.00 | 0.00 | 79 | 1006.7 |
| 20260503002531 | 28 | 252 | 4.8 | 12.9 | 0.00 | 0.00 | 0.00 | 78 | 1006.7 |
| 20260503002101 | 28 | 198 | 3.2 | 12.9 | 0.00 | 0.00 | 0.00 | 78 | 1006.6 |
| 20260503001621 | 28 | 171 | 6.4 | 16.1 | 0.00 | 0.00 | 0.00 | 78 | 1006.6 |
| 20260503001005 | 28 | 207 | 6.4 | 16.1 | 0.00 | 0.00 | 0.00 | 77 | 1006.5 |
| 20260503000526 | 28 | 157 | 4.8 | 12.9 | 0.00 | 0.00 | 0.00 | 77 | 1006.6 |
| 20260503000038 | 28 | 245 | 4.8 | 12.9 | 0.00 | 0.00 | 0.00 | 77 | 1006.5 |
| 20260502235624 | 29 | 268 | 3.2 | 12.9 | 0.00 | 0.00 | 0.00 | 76 | 1006.6 |
| 20260502235043 | 29 | 254 | 4.8 | 11.3 | 0.00 | 0.00 | 0.00 | 77 | 1006.5 |
| 20260502234617 | 29 | 223 | 4.8 | 17.7 | 0.00 | 0.00 | 0.00 | 77 | 1006.5 |
| 20260502234013 | 29 | 273 | 6.4 | 19.3 | 0.00 | 0.00 | 0.00 | 76 | 1006.4 |
| 20260502233534 | 29 | 217 | 8.0 | 19.3 | 0.00 | 0.00 | 0.00 | 76 | 1006.4 |
| 20260502233111 | 29 | 264 | 6.4 | 19.3 | 0.00 | 0.00 | 0.00 | 76 | 1006.4 |
| 20260502232623 | 29 | 249 | 6.4 | 16.1 | 0.00 | 0.00 | 0.00 | 75 | 1006.3 |
| 20260502231613 | 29 | 198 | 9.7 | 20.9 | 0.00 | 0.00 | 0.00 | 75 | 1006.2 |
| 20260502231006 | 29 | 173 | 9.7 | 19.3 | 0.00 | 0.00 | 0.00 | 75 | 1006.3 |
| 20260502230524 | 29 | 219 | 9.7 | 16.1 | 0.00 | 0.00 | 0.00 | 75 | 1006.4 |
| 20260502230053 | 30 | 194 | 9.7 | 16.1 | 0.00 | 0.00 | 0.00 | 73 | 1006.5 |
| 20260502225614 | 30 | 215 | 9.7 | 19.3 | 0.00 | 0.00 | 0.00 | 73 | 1006.6 |
| 20260502225009 | 30 | 201 | 6.4 | 19.3 | 0.00 | 0.00 | 0.00 | 73 | 1006.6 |
| 20260502224530 | 30 | 165 | 8.0 | 14.5 | 0.00 | 0.00 | 0.00 | 71 | 1006.6 |
| 20260502224102 | 31 | 243 | 4.8 | 11.3 | 0.00 | 0.00 | 0.00 | 71 | 1006.6 |
| 20260502223619 | 31 | 239 | 6.4 | 11.3 | 0.00 | 0.00 | 0.00 | 71 | 1006.6 |
| 20260502223003 | 31 | 239 | 4.8 | 17.7 | 0.00 | 0.00 | 0.00 | 71 | 1006.7 |
| 20260502222527 | 31 | 217 | 8.0 | 17.7 | 0.00 | 0.00 | 0.00 | 70 | 1006.8 |
| 20260502222056 | 31 | 257 | 6.4 | 17.7 | 0.00 | 0.00 | 0.00 | 70 | 1006.8 |
| 20260502221620 | 31 | 203 | 8.0 | 17.7 | 0.00 | 0.00 | 0.00 | 70 | 1006.8 |
| 20260502221036 | 31 | 192 | 6.4 | 16.1 | 0.00 | 0.00 | 0.00 | 69 | 1006.8 |
| 20260502220559 | 31 | 206 | 6.4 | 16.1 | 0.00 | 0.00 | 0.00 | 69 | 1006.9 |
| 20260502220007 | 31 | 218 | 8.0 | 16.1 | 0.00 | 0.00 | 0.00 | 69 | 1006.9 |
| 20260502215531 | 31 | 210 | 4.8 | 24.1 | 0.00 | 0.00 | 0.00 | 69 | 1006.9 |
| 20260502215056 | 31 | 184 | 9.7 | 24.1 | 0.00 | 0.00 | 0.00 | 69 | 1007.0 |
| 20260502214619 | 31 | 201 | 8.0 | 17.7 | 0.00 | 0.00 | 0.00 | 69 | 1006.9 |
| 20260502214008 | 31 | 178 | 6.4 | 14.5 | 0.00 | 0.00 | 0.00 | 69 | 1007.0 |
| 20260502213527 | 31 | 221 | 4.8 | 16.1 | 0.00 | 0.00 | 0.00 | 70 | 1007.1 |
| 20260502213105 | 31 | 245 | 6.4 | 14.5 | 0.00 | 0.00 | 0.00 | 69 | 1007.1 |
| 20260502212626 | 31 | 251 | 6.4 | 16.1 | 0.00 | 0.00 | 0.00 | 70 | 1007.2 |
| 20260502212047 | 31 | 290 | 9.7 | 17.7 | 0.00 | 0.00 | 0.00 | 69 | 1007.2 |
| 20260502211609 | 31 | 257 | 8.0 | 14.5 | 0.00 | 0.00 | 0.00 | 69 | 1007.2 |
| 20260502211020 | 31 | 187 | 8.0 | 19.3 | 0.00 | 0.00 | 0.00 | 69 | 1007.2 |
| 20260502210530 | 31 | 175 | 9.7 | 19.3 | 0.00 | 0.00 | 0.00 | 69 | 1007.2 |
| 20260502210044 | 31 | 205 | 9.7 | 17.7 | 0.00 | 0.00 | 0.00 | 70 | 1007.3 |
| 20260502205619 | 30 | 173 | 6.4 | 17.7 | 0.00 | 0.00 | 0.00 | 70 | 1007.4 |
| 20260502205006 | 30 | 167 | 9.7 | 16.1 | 0.00 | 0.00 | 0.00 | 69 | 1007.5 |
| 20260502204527 | 31 | 175 | 9.7 | 20.9 | 0.00 | 0.00 | 0.00 | 69 | 1007.6 |
| 20260502204046 | 31 | 242 | 9.7 | 20.9 | 0.00 | 0.00 | 0.00 | 69 | 1007.8 |
| 20260502203605 | 31 | 176 | 8.0 | 17.7 | 0.00 | 0.00 | 0.00 | 69 | 1007.8 |
| 20260502203019 | 31 | 219 | 8.0 | 19.3 | 0.00 | 0.00 | 0.00 | 68 | 1007.8 |
| 20260502202536 | 31 | 173 | 9.7 | 19.3 | 0.00 | 0.00 | 0.00 | 68 | 1007.9 |
| 20260502202048 | 31 | 255 | 8.0 | 16.1 | 0.00 | 0.00 | 0.00 | 67 | 1008.0 |
| 20260502201608 | 31 | 213 | 6.4 | 17.7 | 0.00 | 0.00 | 0.00 | 67 | 1008.0 |
| 20260502201133 | 31 | 228 | 8.0 | 17.7 | 0.00 | 0.00 | 0.00 | 67 | 1008.0 |
| 20260502200519 | 31 | 271 | 11.3 | 19.3 | 0.00 | 0.00 | 0.00 | 66 | 1008.0 |
| 20260502200052 | 31 | 228 | 6.4 | 17.7 | 0.00 | 0.00 | 0.00 | 67 | 1008.0 |
| 20260502195610 | 31 | 229 | 9.7 | 17.7 | 0.00 | 0.00 | 0.00 | 67 | 1007.9 |
| 20260502195017 | 31 | 271 | 6.4 | 16.1 | 0.00 | 0.00 | 0.00 | 66 | 1007.9 |
| 20260502194537 | 31 | 225 | 4.8 | 17.7 | 0.00 | 0.00 | 0.00 | 67 | 1008.0 |
| 20260502194048 | 31 | 244 | 8.0 | 17.7 | 0.00 | 0.00 | 0.00 | 66 | 1008.0 |
| 20260502193607 | 31 | 235 | 6.4 | 16.1 | 0.00 | 0.00 | 0.00 | 66 | 1008.0 |
| 20260502193012 | 31 | 239 | 6.4 | 16.1 | 0.00 | 0.00 | 0.00 | 66 | 1008.0 |
| 20260502192527 | 31 | 267 | 4.8 | 16.1 | 0.00 | 0.00 | 0.00 | 68 | 1007.9 |
| 20260502192054 | 31 | 215 | 6.4 | 16.1 | 0.00 | 0.00 | 0.00 | 68 | 1007.9 |
| 20260502191616 | 30 | 327 | 4.8 | 19.3 | 0.00 | 0.00 | 0.00 | 68 | 1007.9 |
| 20260502191132 | 30 | 175 | 6.4 | 19.3 | 0.00 | 0.00 | 0.00 | 67 | 1008.0 |
| 20260502190520 | 30 | 223 | 8.0 | 16.1 | 0.00 | 0.00 | 0.00 | 67 | 1008.1 |
| 20260502190050 | 31 | 184 | 8.0 | 17.7 | 0.00 | 0.00 | 0.00 | 68 | 1008.1 |
| 20260502185614 | 31 | 235 | 4.8 | 17.7 | 0.00 | 0.00 | 0.00 | 68 | 1008.1 |
| 20260502185008 | 30 | 270 | 9.7 | 19.3 | 0.00 | 0.00 | 0.00 | 67 | 1008.2 |
| 20260502184526 | 31 | 250 | 6.4 | 19.3 | 0.00 | 0.00 | 0.00 | 66 | 1008.3 |
| 20260502184103 | 31 | 270 | 6.4 | 12.9 | 0.00 | 0.00 | 0.00 | 67 | 1008.4 |
| 20260502183613 | 30 | 226 | 6.4 | 14.5 | 0.00 | 0.00 | 0.00 | 68 | 1008.4 |
| 20260502183013 | 30 | 249 | 6.4 | 14.5 | 0.00 | 0.00 | 0.00 | 67 | 1008.4 |
| 20260502182529 | 30 | 223 | 8.0 | 16.1 | 0.00 | 0.00 | 0.00 | 68 | 1008.5 |
| 20260502182123 | 30 | 230 | 8.0 | 16.1 | 0.00 | 0.00 | 0.00 | 68 | 1008.5 |
| 20260502181504 | 30 | 173 | 8.0 | 16.1 | 0.00 | 0.00 | 0.00 | 68 | 1008.6 |
| 20260502181108 | 30 | 192 | 8.0 | 16.1 | 0.00 | 0.00 | 0.00 | 68 | 1008.6 |
| 20260502180631 | 30 | 192 | 6.4 | 19.3 | 0.00 | 0.00 | 0.00 | 67 | 1008.7 |
| 20260502164054 | 29 | 260 | 4.8 | 12.9 | 0.00 | 0.00 | 0.00 | 69 | 1008.8 |
| 20260502163612 | 30 | 263 | 6.4 | 12.9 | 0.00 | 0.00 | 0.00 | 68 | 1008.8 |
| 20260502163023 | 30 | 261 | 4.8 | 12.9 | 0.00 | 0.00 | 0.00 | 68 | 1008.7 |
| 20260502162538 | 30 | 215 | 8.0 | 12.9 | 0.00 | 0.00 | 0.00 | 67 | 1008.7 |
| 20260502162109 | 30 | 219 | 4.8 | 11.3 | 0.00 | 0.00 | 0.00 | 67 | 1008.7 |
| 20260502161628 | 30 | 275 | 4.8 | 11.3 | 0.00 | 0.00 | 0.00 | 67 | 1008.7 |
| 20260502161046 | 30 | 194 | 4.8 | 9.7 | 0.00 | 0.00 | 0.00 | 67 | 1008.8 |
| 20260502160606 | 30 | 233 | 3.2 | 12.9 | 0.00 | 0.00 | 0.00 | 67 | 1008.7 |
| 20260502152110 | 28 | 257 | 3.2 | 9.7 | 0.00 | 0.00 | 0.00 | 68 | 1008.5 |
| 20260502151626 | 28 | 254 | 4.8 | 9.7 | 0.00 | 0.00 | 0.00 | 67 | 1008.5 |
| 20260502151050 | 28 | 216 | 3.2 | 6.4 | 0.00 | 0.00 | 0.00 | 68 | 1008.5 |
| 20260502150604 | 27 | 242 | 1.6 | 6.4 | 0.00 | 0.00 | 0.00 | 68 | 1008.5 |
| 20260502130532 | 25 | 67 | 0.0 | 0.0 | 0.00 | 0.00 | 0.00 | 75 | 1007.2 |
| 20260502123616 | 25 | 67 | 0.0 | 0.0 | 0.00 | 0.00 | 0.00 | 73 | 1006.9 |
| 20260502123008 | 25 | 67 | 0.0 | 0.0 | 0.00 | 0.00 | 0.00 | 74 | 1006.9 |
| 20260502122524 | 25 | 67 | 0.0 | 0.0 | 0.00 | 0.00 | 0.00 | 74 | 1006.9 |
| 20260502122107 | 25 | 67 | 0.0 | 0.0 | 0.00 | 0.00 | 0.00 | 75 | 1006.8 |
| 20260502121626 | 25 | 67 | 0.0 | 0.0 | 0.00 | 0.00 | 0.00 | 76 | 1006.8 |
| 20260502121020 | 25 | 67 | 0.0 | 0.0 | 0.00 | 0.00 | 0.00 | 76 | 1006.7 |
| 20260502120536 | 25 | 67 | 0.0 | 0.0 | 0.00 | 0.00 | 0.00 | 76 | 1006.6 |
| 20260502115533 | 26 | 67 | 0.0 | 0.0 | 0.00 | 0.00 | 0.00 | 76 | 1006.6 |
| 20260502115048 | 26 | 67 | 0.0 | 0.0 | 0.00 | 0.00 | 0.00 | 76 | 1006.5 |
| 20260502114612 | 26 | 67 | 0.0 | 3.2 | 0.00 | 0.00 | 0.00 | 76 | 1006.6 |
| 20260502114051 | 26 | 67 | 0.0 | 3.2 | 0.00 | 0.00 | 0.00 | 76 | 1006.5 |
| 20260502113550 | 26 | 67 | 0.0 | 3.2 | 0.00 | 0.00 | 0.00 | 76 | 1006.5 |
| 20260502113050 | 26 | 67 | 0.0 | 3.2 | 0.00 | 0.00 | 0.00 | 76 | 1006.4 |
| 20260502112549 | 26 | 67 | 0.0 | 3.2 | 0.00 | 0.00 | 0.00 | 76 | 1006.4 |
| 20260502112049 | 26 | 67 | 0.0 | 4.8 | 0.00 | 0.00 | 0.00 | 76 | 1006.4 |
| 20260502111553 | 26 | 68 | 0.0 | 3.2 | 0.00 | 0.00 | 0.00 | 76 | 1006.4 |
| 20260502111050 | 26 | 71 | 0.0 | 0.0 | 0.00 | 0.00 | 0.00 | 76 | 1006.4 |
| 20260502110548 | 26 | 71 | 0.0 | 1.6 | 0.00 | 0.00 | 0.00 | 77 | 1006.4 |
| 20260502110051 | 26 | 71 | 0.0 | 3.2 | 0.00 | 0.00 | 0.00 | 77 | 1006.4 |
| 20260502105547 | 26 | 71 | 0.0 | 3.2 | 0.00 | 0.00 | 0.00 | 77 | 1006.4 |
| 20260502105047 | 26 | 71 | 0.0 | 3.2 | 0.00 | 0.00 | 0.00 | 77 | 1006.4 |
| 20260502104552 | 26 | 71 | 0.0 | 3.2 | 0.00 | 0.00 | 0.00 | 77 | 1006.4 |
| 20260502104047 | 26 | 71 | 0.0 | 4.8 | 0.00 | 0.00 | 0.00 | 77 | 1006.4 |
| 20260502103546 | 26 | 71 | 0.0 | 6.4 | 0.00 | 0.00 | 0.00 | 77 | 1006.5 |
| 20260502103047 | 26 | 65 | 1.6 | 6.4 | 0.00 | 0.00 | 0.00 | 77 | 1006.5 |
| 20260502102546 | 26 | 53 | 0.0 | 4.8 | 0.00 | 0.00 | 0.00 | 77 | 1006.5 |
| 20260502102046 | 26 | 53 | 0.0 | 4.8 | 0.00 | 0.00 | 0.00 | 77 | 1006.6 |
| 20260502101548 | 26 | 57 | 0.0 | 3.2 | 0.00 | 0.00 | 0.00 | 78 | 1006.5 |
| 20260502101045 | 26 | 55 | 1.6 | 4.8 | 0.00 | 0.00 | 0.00 | 78 | 1006.6 |
| 20260502100544 | 26 | 35 | 0.0 | 6.4 | 0.00 | 0.00 | 0.00 | 78 | 1006.5 |
| 20260502091040 | 26 | 124 | 0.0 | 0.0 | 0.00 | 0.00 | 0.00 | 80 | 1006.6 |
| 20260502090541 | 26 | 124 | 0.0 | 0.0 | 0.00 | 0.00 | 0.00 | 80 | 1006.7 |
| 20260502071030 | 26 | 134 | 0.0 | 0.0 | 0.00 | 0.00 | 0.00 | 79 | 1007.2 |
| 20260502070530 | 26 | 134 | 0.0 | 0.0 | 0.00 | 0.00 | 0.00 | 79 | 1007.2 |
| 20260502070030 | 26 | 134 | 0.0 | 1.6 | 0.00 | 0.00 | 0.00 | 79 | 1007.3 |
| 20260502065530 | 26 | 134 | 0.0 | 1.6 | 0.00 | 0.00 | 0.00 | 79 | 1007.4 |
| 20260502065034 | 26 | 134 | 0.0 | 4.8 | 0.00 | 0.00 | 0.00 | 79 | 1007.3 |
| 20260502064529 | 26 | 134 | 1.6 | 4.8 | 0.00 | 0.00 | 0.00 | 79 | 1007.4 |
| 20260502064029 | 26 | 186 | 0.0 | 3.2 | 0.00 | 0.00 | 0.00 | 79 | 1007.4 |
| 20260502063528 | 26 | 186 | 0.0 | 1.6 | 0.00 | 0.00 | 0.00 | 79 | 1007.4 |
| 20260502063029 | 26 | 186 | 0.0 | 1.6 | 0.00 | 0.00 | 0.00 | 78 | 1007.4 |
| 20260502062527 | 26 | 186 | 0.0 | 1.6 | 0.00 | 0.00 | 0.00 | 78 | 1007.3 |
| 20260502062029 | 26 | 186 | 0.0 | 1.6 | 0.00 | 0.00 | 0.00 | 78 | 1007.3 |
| 20260502061513 | 26 | 186 | 0.0 | 0.0 | 0.00 | 0.00 | 0.00 | 78 | 1007.3 |
| 20260502061012 | 26 | 186 | 0.0 | 0.0 | 0.00 | 0.00 | 0.00 | 78 | 1007.3 |
| 20260502060512 | 26 | 186 | 0.0 | 1.6 | 0.00 | 0.00 | 0.00 | 78 | 1007.3 |
| 20260502060011 | 26 | 186 | 0.0 | 3.2 | 0.00 | 0.00 | 0.00 | 78 | 1007.2 |
| 20260502055612 | 26 | 186 | 0.0 | 3.2 | 0.00 | 0.00 | 0.00 | 78 | 1007.3 |
| 20260502055018 | 26 | 186 | 0.0 | 1.6 | 0.00 | 0.00 | 0.00 | 78 | 1007.2 |
| 20260502054532 | 26 | 187 | 0.0 | 1.6 | 0.00 | 0.00 | 0.00 | 78 | 1007.2 |
| 20260502054053 | 26 | 187 | 0.0 | 3.2 | 0.00 | 0.00 | 0.00 | 79 | 1007.2 |
| 20260502053617 | 26 | 187 | 0.0 | 3.2 | 0.00 | 0.00 | 0.00 | 79 | 1007.2 |
| 20260502053001 | 26 | 188 | 0.0 | 3.2 | 0.00 | 0.00 | 0.00 | 79 | 1007.1 |
| 20260502052521 | 26 | 188 | 0.0 | 1.6 | 0.00 | 0.00 | 0.00 | 79 | 1007.1 |
| 20260502052057 | 26 | 188 | 0.0 | 1.6 | 0.00 | 0.00 | 0.00 | 79 | 1007.2 |
| 20260502051702 | 26 | 188 | 0.0 | 1.6 | 0.00 | 0.00 | 0.00 | 79 | 1007.2 |
| 20260502051011 | 26 | 188 | 0.0 | 1.6 | 0.00 | 0.00 | 0.00 | 79 | 1007.1 |
| 20260502050530 | 26 | 188 | 0.0 | 1.6 | 0.00 | 0.00 | 0.00 | 79 | 1007.1 |
| 20260502050052 | 26 | 188 | 0.0 | 3.2 | 0.00 | 0.00 | 0.00 | 80 | 1007.1 |
| 20260502045534 | 26 | 188 | 0.0 | 3.2 | 0.00 | 0.00 | 0.00 | 80 | 1007.0 |
| 20260502045051 | 26 | 188 | 0.0 | 3.2 | 0.00 | 0.00 | 0.00 | 80 | 1007.0 |
| 20260502044610 | 26 | 188 | 0.0 | 3.2 | 0.00 | 0.00 | 0.00 | 80 | 1007.0 |
| 20260502044013 | 26 | 188 | 0.0 | 3.2 | 0.00 | 0.00 | 0.00 | 80 | 1007.0 |
| 20260502043536 | 26 | 191 | 0.0 | 0.0 | 0.00 | 0.00 | 0.00 | 80 | 1006.9 |
| 20260502043127 | 26 | 191 | 0.0 | 0.0 | 0.00 | 0.00 | 0.00 | 80 | 1007.0 |
| 20260502042515 | 26 | 191 | 0.0 | 0.0 | 0.00 | 0.00 | 0.00 | 80 | 1006.9 |
| 20260502042051 | 26 | 191 | 0.0 | 0.0 | 0.00 | 0.00 | 0.00 | 81 | 1007.0 |
| 20260502041602 | 26 | 192 | 0.0 | 0.0 | 0.00 | 0.00 | 0.00 | 81 | 1006.9 |
| 20260502041005 | 26 | 192 | 0.0 | 0.0 | 0.00 | 0.00 | 0.00 | 81 | 1006.9 |
| 20260502040527 | 26 | 225 | 0.0 | 0.0 | 0.00 | 0.00 | 0.00 | 81 | 1006.9 |
| 20260502040051 | 26 | 234 | 0.0 | 0.0 | 0.00 | 0.00 | 0.00 | 82 | 1006.8 |
| 20260502035622 | 26 | 234 | 0.0 | 0.0 | 0.00 | 0.00 | 0.00 | 82 | 1006.8 |
| 20260502035019 | 26 | 234 | 0.0 | 0.0 | 0.00 | 0.00 | 0.00 | 83 | 1006.8 |
| 20260502034542 | 27 | 234 | 0.0 | 1.6 | 0.00 | 0.00 | 0.00 | 83 | 1006.7 |
| 20260502034055 | 27 | 234 | 0.0 | 3.2 | 0.00 | 0.00 | 0.00 | 83 | 1006.7 |
| 20260502033615 | 27 | 234 | 1.6 | 4.8 | 0.00 | 0.00 | 0.00 | 83 | 1006.6 |
| 20260502033005 | 27 | 234 | 1.6 | 4.8 | 0.00 | 0.00 | 0.00 | 83 | 1006.6 |
| 20260502032527 | 27 | 233 | 0.0 | 4.8 | 0.00 | 0.00 | 0.00 | 83 | 1006.6 |
| 20260502032059 | 27 | 233 | 1.6 | 4.8 | 0.00 | 0.00 | 0.00 | 83 | 1006.4 |
| 20260502031623 | 27 | 232 | 1.6 | 4.8 | 0.00 | 0.00 | 0.00 | 83 | 1006.4 |
| 20260502031133 | 27 | 207 | 1.6 | 4.8 | 0.00 | 0.00 | 0.00 | 83 | 1006.4 |
| 20260502030515 | 27 | 197 | 0.0 | 4.8 | 0.00 | 0.00 | 0.00 | 83 | 1006.3 |
| 20260502030039 | 27 | 195 | 0.0 | 4.8 | 0.00 | 0.00 | 0.00 | 83 | 1006.2 |
| 20260502025614 | 27 | 192 | 0.0 | 4.8 | 0.00 | 0.00 | 0.00 | 83 | 1006.2 |
| 20260502025001 | 27 | 186 | 0.0 | 4.8 | 0.00 | 0.00 | 0.00 | 83 | 1006.1 |